Location: Lugrin
(46.4033°N, 6.6674°E)
Time: 09:31:55
(UTC+00:00)

N. Korean satellite - Pass Details

Date: 01 December 2020
Orbit: 453 x 502 km, 97.2° (Epoch: 16 January)

Event Time Altitude Azimuth Distance (km) Brightness Sun altitude
Rises 16:19:05 0° 173° (S) 2,456 10.4 -5.5°
Reaches altitude 10° 16:21:07 10° 176° (S) 1,592 9.5 -5.8°
Maximum altitude 16:24:30 64° 259° (WSW) 513 7.0 -6.3°
Drops below altitude 10° 16:27:57 10° 342° (NNW) 1,625 9.2 -6.9°
Sets 16:30:02 0° 345° (NNW) 2,513 10.1 -7.2°
